{"data":{"norad_id":53286,"intl_designator":"2022-086AW","name":"STARLINK-4165","alt_names":[],"object_type":"PAYLOAD","status":"ACTIVE","operator":null,"country":"US","launch_date":"2022-07-24","launch_site_code":"AFETR","launch_vehicle":null,"mission":null,"orbit_class":"UNKNOWN","rcs_meters":null,"size_class":null,"mass_kg":null,"dimensions":null,"purposes":["comms"],"wikipedia_slug":null,"has_3d_model":false,"image_url":null,"decayed_at":null,"tle_current":{"epoch":"2026-05-25T03:27:38.155968Z","epoch_age_seconds":76744,"freshness":"FRESH","line1":"1 53286U 22086AW  26145.14419162 -.00000353  00000+0 -40852-5 0  9994","line2":"2 53286  53.2122 200.5938 0001199  91.7256 268.3874 15.08838479212734","mean_motion":15.08838479,"eccentricity":0.0001199,"inclination_deg":53.2122,"raan_deg":200.5938,"arg_perigee_deg":91.7256,"mean_anomaly_deg":268.3874,"bstar":-4.0852e-6,"rev_number":21273,"period_min":95.437650884565,"perigee_km":538.91858364046,"apogee_km":540.57749247259,"semimajor_km":6917.8850380565,"source":"CELESTRAK","updated_at":"2026-05-25T13:38:17.390021Z"}}}